Location: Biburg
(48.3749°N, 10.7608°E)
Time: 01:32:55
(UTC+00:00)

Daily predictions for brighter satellites

Satellite Brightness Start Highest point End
(mag) Time Altitude Azimuth Time Altitude Azimuth Time Altitude Azimuth
Cosmos 2082 4.5 00:03:44 24° SSE 00:06:29 39° ESE 00:11:40 10° NE
Cosmos 292 Rocket 4.3 00:04:41 29° SSE 00:06:43 46° ESE 00:11:18 10° NNE
Cosmos 2227 Rocket 2.2 00:05:20 27° SSW 00:08:32 81° WNW 00:14:15 10° NNE
Cosmos 1892 3.6 00:09:05 27° WSW 00:10:05 33° WNW 00:13:19 10° N
Cosmos 990 Rocket 3.9 00:08:24 31° SSW 00:10:54 85° ESE 00:16:03 10° NNE
IDEFIX/ARIANE 42P 4.2 00:06:39 10° NE 00:10:58 25° E 00:14:28 13° SE
Cosmos 332 Rocket 4.1 00:09:47 27° SW 00:12:21 59° WNW 00:17:13 10° NNE
SL-12 R/B(2) 4.4 00:09:27 23° SSW 00:15:01 77° SE 00:24:50 10° NE
CENTAUR R/B 2.4 00:12:18 27° SSW 00:15:37 76° SE 00:22:42 10° NE
CZ-2C R/B 4.3 00:11:32 10° ESE 00:16:06 31° ENE 00:20:48 10° N
CZ-2D R/B 4.0 00:14:23 10° NE 00:18:26 21° E 00:22:24 10° SE
GEOS 3 Rocket 3.7 00:13:24 10° NE 00:18:34 74° NW 00:22:02 21° SW
Meteor 1-21 Rocket 4.2 00:18:17 28° S 00:21:33 89° E 00:27:16 10° NNE
H-2A R/B 3.4 00:18:05 10° N 00:21:50 30° WNW 00:24:02 19° WSW
Cosmos 1975 Rocket 3.2 00:21:39 30° S 00:23:41 66° E 00:28:03 10° NNE
Cosmos 1538 Rocket 4.1 00:19:18 10° NNW 00:24:26 62° WSW 00:27:12 27° S
SL-4 R/B 3.2 00:23:37 10° W 00:26:25 25° WSW 00:26:25 25° WSW
Cosmos 2297 Rocket 3.4 00:24:23 12° WSW 00:29:02 36° NW 00:34:13 10° NNE
Cosmos 2219 3.1 00:27:36 27° SSW 00:30:49 86° ESE 00:36:28 10° NNE
Cosmos 2341 Rocket 4.2 00:28:16 22° S 00:32:25 66° E 00:38:36 10° NNE
Cosmos 2084 Rocket 4.2 00:29:51 17° WSW 00:32:51 45° NW 00:36:49 10° NNE
Cosmos 1455 Rocket 3.2 00:31:08 10° NNW 00:35:32 61° W 00:37:36 30° SSW
Aureole 1 Rocket 2.7 00:38:34 35° SSW 00:40:03 84° WNW 00:44:28 10° NNE
Cosmos 1825 4.1 00:42:47 13° W 00:44:09 16° WNW 00:46:19 10° NNW
Cosmos 372 Rocket 4.1 00:42:35 25° S 00:45:39 69° ESE 00:50:52 10° NNE
ADEOS II 3.8 00:41:50 10° NE 00:46:05 25° E 00:50:19 10° SSE
Meteor 2-1 Rocket 4.3 00:43:05 10° NNW 00:49:00 80° W 00:53:19 19° S
Cosmos 923 Rocket 3.9 00:47:16 10° NNW 00:52:33 79° WSW 00:56:51 15° SSE
Cosmos 1025 Rocket 4.1 00:50:34 21° WSW 00:52:45 33° WNW 00:56:41 10° N
BREEZE-M DEB (TANK) 2.5 00:54:42 10° WNW 00:58:51 32° SW 00:58:59 32° SSW
Resurs 1-4 Rocket 2.8 00:53:54 10° NNE 00:59:00 47° E 01:03:09 15° S
NOSS 3-2 (A) 3.2 00:56:57 21° SW 01:00:36 85° NW 01:06:54 10° NE
Cosmos 1937 Rocket 3.5 00:58:06 23° SSW 01:01:29 80° ESE 01:06:45 10° NNE
Cosmos 1606 2.5 00:58:38 10° NNW 01:02:12 71° W 01:04:04 26° S
Cosmos 2263 Rocket 2.2 00:58:49 22° SW 01:02:32 78° WNW 01:08:08 10° NNE
CZ-4C R/B 4.0 01:00:03 10° W 01:04:26 28° NNW 01:09:47 10° NE
Cosmos 1898 Rocket 3.5 01:01:19 22° SSW 01:04:38 74° WNW 01:09:50 10° NNE
NOSS 3-2 (C) 3.6 01:03:08 21° SSW 01:06:31 54° ESE 01:12:30 10° NE
Cosmos 1821 Rocket 4.4 01:01:26 13° SSE 01:06:44 57° E 01:12:44 10° NNE
Orbus 7S? 2.8 01:04:53 10° NW 01:07:37 89° SW 01:11:49 10° SE
MOZ.5/SAFIR/RUBIN 5/SL-8 3.9 01:05:48 21° S 01:08:44 56° W 01:13:18 10° NNW
Cosmos 2218 Rocket 4.0 01:04:28 19° S 01:09:08 87° WNW 01:15:21 10° N
USA 267 4.5 01:04:41 10° ENE 01:10:07 27° SE 01:14:40 13° S
Helios 1A Rocket 3.9 01:12:04 22° SW 01:13:23 27° W 01:16:40 10° NW
BlueWalker 3 3.4 01:11:18 10° WNW 01:14:49 38° N 01:18:21 10° ENE
Cosmos 2366 rocket 4.0 01:11:40 19° SSW 01:16:23 75° W 01:22:39 10° N
Iridium 921 4.3 01:14:40 24° S 01:16:39 85° W 01:20:07 10° N
Cosmos 1461 2.7 01:14:31 24° SSW 01:16:51 80° SE 01:20:44 10° NE
Cosmos 1844 Rocket 3.8 01:17:43 11° S 01:22:30 36° ESE 01:27:32 10° NE
BREEZE-M DEB (TANK) 2.7 01:25:57 24° SSW 01:25:57 24° SSW 01:28:20 10° SSE
MSX 3.8 01:22:48 10° NNE 01:28:35 90° W 01:33:23 15° SSW
Cosmos 1680 Rocket 3.8 01:29:48 10° NNW 01:34:46 47° WSW 01:39:25 12° S
ALOS 3.5 01:30:49 10° NNE 01:35:05 35° E 01:39:18 10° SSE
Cosmos 1818 3.9 01:30:55 10° NW 01:36:06 44° WSW 01:41:15 10° S
Cosmos 2112 Rocket 4.2 01:31:54 10° NNW 01:36:57 53° WSW 01:41:57 10° S
SL-16 R/B 2.9 01:32:05 10° SSE 01:38:17 72° ENE 01:44:31 10° NNW
SL-16 R/B 3.6 01:34:11 10° NW 01:38:20 21° W 01:41:08 15° SW
Cosmos 1603 3.7 01:37:54 10° NNW 01:43:42 84° WSW 01:49:25 10° SSE
USA 234 4.0 01:40:44 10° E 01:47:07 58° NNE 01:53:31 10° NW
COSMOS 2441 4.4 01:43:10 10° NNE 01:48:00 86° WNW 01:52:26 12° SSW
Meteor 1-28 Rocket 3.1 01:45:04 10° SSE 01:48:36 80° ENE 01:52:10 10° N
IDEFIX/ARIANE 42P 3.0 01:45:40 10° N 01:50:45 51° WNW 01:55:13 13° SW
Cosmos 2228 3.8 01:48:40 10° NNW 01:52:35 34° W 01:55:49 14° SSW
Cosmos 2227 Rocket 4.2 01:49:27 10° W 01:53:30 20° NW 01:57:34 10° N
Cosmos 1943 3.5 01:48:26 10° NW 01:53:47 46° WSW 01:59:06 10° S
CZ-2C R/B 3.2 01:50:27 10° N 01:55:55 74° WNW 02:00:50 11° SSW
CZ-2C R/B 3.1 01:51:20 11° S 01:56:12 44° W 02:01:21 10° NNW
Cosmos 1437 Rocket 2.7 01:53:28 14° SSW 01:56:44 69° WNW 02:00:31 10° N
CZ-2D R/B 2.3 01:53:35 10° N 01:58:52 61° WNW 02:03:47 11° SSW
FENGYUN 3A 3.7 01:55:50 10° NNE 02:01:15 85° WNW 02:06:38 10° SSW
Cosmos 1727 Rocket 4.3 01:58:27 10° NNW 02:04:34 53° W 02:10:41 10° SSW
CENTAUR R/B 3.9 02:01:16 10° W 02:06:59 36° NNW 02:13:56 10° NE
Envisat 4.2 02:05:29 10° NNE 02:10:15 40° E 02:15:01 10° SSE
Cosmos 1048 Rocket 4.0 02:06:37 10° NNW 02:11:50 78° WSW 02:17:06 10° SSE
USA 238 DEB 3.6 02:06:34 11° SW 02:12:36 82° SE 02:19:24 10° NE
USA 238 3.6 02:06:36 11° SW 02:12:39 81° SE 02:19:27 10° NE
ASTEX 1 3.5 02:15:50 10° S 02:20:36 57° W 02:25:25 10° NNW
Cosmos 1606 Rocket 4.0 02:18:22 10° NNW 02:22:38 46° W 02:26:51 10° SSW
Cosmos 1125 Rocket 4.0 02:18:13 10° S 02:23:22 59° ESE 02:28:36 10° NNE
Cosmos 1867 3.7 02:18:47 10° SW 02:24:15 85° NW 02:29:46 10° NE
CZ-2C R/B 3.8 02:20:21 10° NNE 02:24:30 33° E 02:28:37 10° SSE
IRAS Rocket 4.4 02:19:23 10° NNE 02:24:55 77° ESE 02:30:24 10° SSW
Cosmos 921 Rocket 3.4 02:21:10 10° NNW 02:25:09 41° WSW 02:29:04 10° S
ADEOS II 2.5 02:20:54 10° N 02:26:00 52° WNW 02:31:04 10° SW
Alouette 2 Rocket 3.5 02:23:26 10° S 02:28:08 82° ESE 02:31:49 10° NNE
BREEZE-M DEB (TANK) 4.2 02:22:22 10° SSW 02:28:15 24° SSE 02:30:57 10° E
Cosmos 494 Rocket 4.5 02:23:44 10° NW 02:28:39 42° WSW 02:33:33 10° S
Cosmos 1833 Rocket 4.4 02:26:14 10° NNW 02:31:31 39° NE 02:36:47 10° ESE
Cosmos 1844 3.8 02:28:31 10° SSW 02:34:17 80° WNW 02:40:08 10° NNE
